Location: Hauppauge
(40.8260°N, 73.2030°W)
Time: 23:35:49
(UTC-04:00)

Daily predictions for brighter satellites

Satellite Brightness Start Highest point End
(mag) Time Altitude Azimuth Time Altitude Azimuth Time Altitude Azimuth
Cosmos 1934 Rocket 4.0 19:40:29 10° S 19:46:39 84° E 19:52:56 10° N
Cosmos 2298 Rocket 4.4 19:42:35 10° N 19:47:44 47° ENE 19:52:50 10° SE
Cosmos 1500 4.3 19:47:05 10° SE 19:50:10 24° E 19:53:17 10° NE
FREGAT/IRIS 3.7 19:49:09 10° S 19:52:13 51° W 19:55:18 10° NNW
Cosmos 2297 Rocket 2.3 19:53:17 10° NNW 19:58:58 84° WSW 20:04:38 10° SSE
CZ-2D R/B 3.8 19:56:58 10° SE 20:00:36 40° ENE 20:04:17 10° N
Cosmos 2082 4.3 19:57:12 10° NNW 20:02:44 60° WSW 20:08:14 10° S
Resurs 01 Rocket 2.0 19:58:52 10° S 20:03:16 69° WSW 20:07:44 10° NNW
Cosmos 1763 Rocket 4.4 20:00:21 10° SSE 20:04:29 26° E 20:08:37 10° NE
Cosmos 1975 2.8 20:01:12 10° S 20:05:15 64° E 20:09:20 10° NNE
Lacrosse 5 rocket 3.1 20:02:58 10° WNW 20:06:02 24° SW 20:09:01 10° S
FengYun 1-2 T 4.3 20:02:04 10° SSE 20:07:42 87° ENE 20:13:20 10° NNW
Cosmos 2150 Rocket 4.0 20:07:12 10° NNW 20:12:20 67° ENE 20:17:30 10° SSE
Cosmos 1515 3.7 20:11:36 10° N 20:15:24 60° E 20:19:11 10° SSE
Cosmos 2084 4.1 20:15:39 10° NW 20:19:39 54° WSW 20:23:52 10° SSE
Cosmos 1898 Rocket 3.5 20:14:27 10° NNW 20:19:47 82° ENE 20:25:01 10° SSE
Cosmos 1825 Rocket 4.4 20:17:23 10° NNE 20:21:19 31° ENE 20:24:23 14° SE
Cosmos 468 Rocket 3.9 20:21:47 10° SSW 20:26:54 90° ESE 20:32:04 10° NNE
Cosmos 841 Rocket 3.9 20:25:40 10° S 20:30:31 40° ESE 20:35:22 10° NE
Cosmos 1697 Rocket 2.8 20:25:18 10° SSW 20:30:57 81° WNW 20:36:38 10° NNE
Cosmos 1953 Rocket 4.4 20:30:16 10° NNE 20:34:17 32° ENE 20:36:27 21° ESE
Cosmos 2173 Rocket 4.1 20:29:35 10° SSE 20:35:46 56° E 20:41:56 10° NNE
H-2A R/B 3.5 20:35:01 17° E 20:36:00 19° ENE 20:38:54 10° NNE
Cosmos 1743 2.9 20:33:00 10° S 20:36:48 50° E 20:40:36 10° NNE
Cosmos 1626 Rocket 4.4 20:33:58 10° NNW 20:38:14 52° W 20:42:26 10° S
Cosmos 1066 Rocket 4.3 20:35:39 10° N 20:41:23 88° ENE 20:47:14 10° S
Cosmos 1814 Rocket 4.2 20:36:38 10° SSW 20:41:58 80° WNW 20:47:17 10° NNE
Cosmos 967 Rocket 4.5 20:36:29 10° NNW 20:42:50 69° ENE 20:47:19 20° SE
SL-16 R/B 2.9 20:42:08 10° SSE 20:46:57 29° ESE 20:51:47 10° NE
Lacrosse 5 2.5 20:42:17 10° NW 20:47:12 52° SW 20:50:59 16° SSE
Cosmos 1939 Rocket 3.5 20:46:28 27° ESE 20:48:06 39° ENE 20:52:01 10° N
SJ-11-01 4.4 20:45:46 20° SE 20:48:53 57° ENE 20:53:29 10° N
Cosmos 1758 Rocket 4.0 20:48:18 10° N 20:52:25 41° ENE 20:53:45 32° ESE
Iridium 4 Rocket 3.8 20:50:11 10° N 20:54:56 57° W 20:59:17 10° SSW
USA 186 2.8 20:52:31 11° S 20:55:12 38° W 20:57:49 10° NNW
Cosmos 1980 Rocket 2.2 20:50:12 10° SSW 20:55:52 84° WNW 21:01:37 10° NNE
Cosmos 2100 Rocket 4.0 20:49:40 10° S 20:55:56 88° E 21:02:11 10° N
SPOT 5 3.8 20:57:22 28° E 20:58:28 31° ENE 21:02:36 10° N
YAOGAN 11 4.0 20:58:11 24° SSE 21:00:50 77° ENE 21:05:16 10° N
ALOS 3.8 20:59:26 10° SSW 21:03:42 35° W 21:08:00 10° NNW
YAOGAN 6 4.2 21:08:22 22° NE 21:08:22 22° NE 21:10:39 10° NNE
deb Chang Zheng 4 3.9 21:06:14 10° NNE 21:10:29 42° E 21:10:32 42° ESE
Tsikada Rocket 4.3 21:04:55 10° N 21:11:08 49° ENE 21:13:33 33° SE
Cosmos 1666 2.5 21:13:59 63° ESE 21:14:11 65° E 21:17:58 10° NNE
RESURS DK-1 4.1 21:11:01 10° NW 21:14:38 29° WSW 21:17:35 14° SSW
Envisat 2.9 21:12:38 34° SSE 21:14:52 74° ENE 21:19:57 10° N
CZ-4 DEB 3.1 21:14:51 52° SW 21:15:20 60° W 21:18:27 10° NNW
Cosmos 2061 Rocket 4.2 21:09:13 10° SSW 21:15:29 73° W 21:21:44 10° N
Cosmos 1459 Rocket 4.2 21:10:31 10° SSW 21:16:31 68° W 21:22:39 10° N
OAO 2 Rocket 4.3 21:12:41 10° WSW 21:17:04 31° SSW 21:17:57 29° S
Cosmos 1842 3.1 21:14:46 10° N 21:18:40 66° E 21:18:45 65° E
Cosmos 2263 Rocket 3.0 21:14:26 10° N 21:19:26 32° ENE 21:20:21 31° ENE
Cosmos 1606 Rocket 3.8 21:17:10 10° SSW 21:21:32 68° W 21:25:59 10° N
Tiangong 1 3.0 21:19:07 10° W 21:21:05 22° SW 21:21:05 22° SW
Cosmos 2058 Rocket 3.0 21:22:10 40° S 21:23:45 80° E 21:28:16 10° N
Cosmos 1725 Rocket 3.9 21:23:01 25° S 21:26:45 69° E 21:32:58 10° NNE
Cosmos 1340 3.8 21:26:14 10° NNW 21:29:49 41° W 21:31:12 29° SW
Cosmos 2322 Rocket 2.0 21:25:44 10° SSW 21:31:18 75° ESE 21:36:56 10° NNE
ERS-1 Rocket 3.4 21:29:00 26° S 21:31:41 60° WSW 21:36:40 10° NNW
MetOp-A 4.2 21:31:13 52° ESE 21:32:10 61° ENE 21:37:27 10° N
Meteor 2-9 Rocket 4.3 21:42:27 22° SSW 21:46:00 72° W 21:51:23 10° N
Cosmos 2233 Rocket 3.9 21:46:04 57° ESE 21:46:45 61° E 21:52:54 10° NNE
SL-19 R/B 4.5 21:44:06 10° NNE 21:48:20 47° ENE 21:48:20 47° ENE
H-2A R/B 3.4 21:54:30 25° NE 21:54:30 25° NE 21:57:25 10° N
Cosmos 783 Rocket 4.4 21:54:20 83° SSE 21:54:31 86° ESE 21:59:50 10° NNE
USA 215 4.5 21:52:31 22° ENE 21:55:25 32° NNE 22:01:02 10° NW
Meteor 2-5 Rocket 4.1 21:51:56 10° N 21:57:20 52° ENE 21:57:20 52° ENE
BREEZE-M DEB (TANK) 3.5 21:57:48 10° WNW 21:59:21 37° WNW 21:59:21 37° WNW
ASTEX 1 4.0 21:59:13 10° N 22:04:06 55° W 22:05:15 44° SW
Cosmos 405 Rocket 4.5 22:02:37 10° NNW 22:04:31 28° NNW 22:04:31 28° NNW
Cosmos 1125 Rocket 4.1 22:03:00 10° NNW 22:08:02 50° WSW 22:08:30 48° WSW
Cosmos 2228 4.0 22:08:22 45° WNW 22:08:22 45° WNW 22:12:17 10° N
H-2A R/B 3.3 22:12:09 35° W 22:12:09 35° W 22:15:36 10° NNW
SPOT 1/Viking Rocket 3.7 22:13:18 72° NNW 22:13:18 72° NNW 22:17:58 10° NNW
Cosmos 540 Rocket 3.8 22:12:07 56° WSW 22:12:45 61° WNW 22:17:51 10° NNE
Cosmos 2278 Rocket 4.5 22:13:05 10° NNE 22:15:08 12° NE 22:15:11 12° NE
Cosmos 371 Rocket 4.3 22:20:55 40° N 22:20:55 40° N 22:24:07 10° NNE
ARGOS 3.3 22:20:24 71° NNW 22:20:24 71° NNW 22:25:13 10° NNW
Cosmos 1844 Rocket 4.2 22:25:12 10° N 22:28:41 25° NNE 22:28:41 25° NNE
SL-16 R/B 3.4 22:25:35 10° SW 22:30:52 39° WNW 22:36:11 10° N
SPOT 5 4.5 22:36:37 29° W 22:36:37 29° W 22:40:36 10° NW
Cosmos 2360 Rocket 3.3 22:42:34 37° NNE 22:42:34 37° NNE 22:45:54 10° NNE
Terra 3.5 22:47:05 29° N 22:47:05 29° N 22:49:25 10° N
Cosmos 2263 Rocket 3.6 22:58:19 10° NW 23:02:03 31° WNW 23:02:03 31° WNW
H-2A R/B 4.2 23:35:08 20° NW 23:35:08 20° NW 23:36:57 10° NW
USA 215 4.0 23:39:53 48° NW 23:39:53 48° NW 23:44:26 10° NW
